STARLINK-36798

Last updated on Sun Mar 15 2026 00:02:06 GMT+0000 (Coordinated Universal Time)

1 67798U 26032B 26073.56891425 .00258921 00000+0 16769-2 0 9995 2 67798 97.2842 260.3308 0002277 94.2222 265.9304 15.75296438 5556
UTC large
Height (km)
Speed (km/s)
/
Latitude / Longitude
Inclination (degrees)
Orbital Period (minutes)
Azimuth
Elevation
Range (km)
Doppler Factor

Next 0 passes for location: London (51.5072 / 0.1276)

Sorry there are no passes over London.